• In Portugal
  • List of Countries
  • For 7 days
  • Water Temperature
  • Satellite Maps
  • Weather Map
  • Weather Widgets
  • user-avatar
    Login

    Hourly Weather Parowa

    Today, 19 September, Wednesday

    Time Temperature Precipitation Wind Pressure Humidity
    00:00 +20°C° 0 mm 3 mps 748 mmHg 69%
    01:00 +20°C° 0 mm 3 mps 748 mmHg 70%
    02:00 +19°C° 0 mm 3 mps 748 mmHg 71%
    03:00 +19°C° 0 mm 3 mps 748 mmHg 72%
    04:00 +18°C° 0 mm 2 mps 748 mmHg 74%
    05:00 +19°C° 0 mm 2 mps 748 mmHg 73%
    06:00 +19°C° 0 mm 2 mps 748 mmHg 72%
    07:00 +19°C° 0 mm 2 mps 749 mmHg 71%
    08:00 +21°C° 0 mm 2 mps 749 mmHg 65%
    09:00 +24°C° 0 mm 2 mps 749 mmHg 59%
    10:00 +26°C° 0 mm 2 mps 749 mmHg 54%
    11:00 +27°C° 0 mm 2 mps 749 mmHg 50%
    12:00 +28°C° 0 mm 2 mps 749 mmHg 47%
    13:00 +29°C° 0 mm 2 mps 749 mmHg 43%
    14:00 +29°C° 0 mm 2 mps 749 mmHg 43%
    15:00 +29°C° 0 mm 2 mps 749 mmHg 43%
    16:00 +29°C° 0 mm 1 mps 749 mmHg 43%
    17:00 +27°C° 0 mm 1 mps 749 mmHg 49%
    18:00 +26°C° 0 mm 1 mps 749 mmHg 56%
    19:00 +24°C° 0 mm 1 mps 749 mmHg 62%
    20:00 +23°C° 0.1 mm 2 mps 749 mmHg 64%
    21:00 +21°C° 0.1 mm 2 mps 749 mmHg 66%
    22:00 +21°C° 0.1 mm 2 mps 749 mmHg 68%
    23:00 +20°C° 0 mm 2 mps 749 mmHg 69%

    Tomorrow, 20 September, Thursday

    Time Temperature Precipitation Wind Pressure Humidity
    00:00 +20°C° 0 mm 2 mps 749 mmHg 70%
    01:00 +20°C° 0 mm 2 mps 749 mmHg 71%
    02:00 +20°C° 0 mm 2 mps 749 mmHg 73%
    03:00 +19°C° 0 mm 2 mps 749 mmHg 75%
    04:00 +19°C° 0 mm 2 mps 749 mmHg 77%
    05:00 +19°C° 0 mm 2 mps 749 mmHg 76%
    06:00 +20°C° 0 mm 2 mps 749 mmHg 76%
    07:00 +20°C° 0 mm 2 mps 749 mmHg 75%
    08:00 +23°C° 0 mm 2 mps 750 mmHg 69%
    09:00 +25°C° 0 mm 2 mps 750 mmHg 63%
    10:00 +27°C° 0 mm 2 mps 750 mmHg 57%
    11:00 +27°C° 0 mm 3 mps 750 mmHg 53%
    12:00 +28°C° 0 mm 3 mps 749 mmHg 49%
    13:00 +29°C° 0 mm 3 mps 749 mmHg 45%
    14:00 +29°C° 0 mm 3 mps 749 mmHg 45%
    15:00 +29°C° 0 mm 2 mps 749 mmHg 45%
    16:00 +29°C° 0 mm 2 mps 748 mmHg 45%
    17:00 +27°C° 0 mm 2 mps 748 mmHg 51%
    18:00 +25°C° 0 mm 1 mps 748 mmHg 57%
    19:00 +23°C° 0 mm 1 mps 748 mmHg 63%
    20:00 +23°C° 0 mm 1 mps 748 mmHg 65%
    21:00 +22°C° 0 mm 1 mps 748 mmHg 66%
    22:00 +21°C° 0 mm 2 mps 748 mmHg 68%
    23:00 +21°C° 0 mm 2 mps 747 mmHg 69%

    Day after tomorrow, 21 September, Friday

    Time Temperature Precipitation Wind Pressure Humidity
    00:00 +20°C° 0 mm 2 mps 747 mmHg 70%
    01:00 +20°C° 0 mm 2 mps 747 mmHg 71%
    02:00 +20°C° 0 mm 2 mps 746 mmHg 72%
    03:00 +20°C° 0 mm 3 mps 746 mmHg 73%
    04:00 +19°C° 0 mm 3 mps 746 mmHg 73%
    05:00 +20°C° 0 mm 3 mps 745 mmHg 71%
    06:00 +20°C° 0 mm 3 mps 745 mmHg 68%
    07:00 +20°C° 0 mm 4 mps 745 mmHg 65%
    08:00 +22°C° 0 mm 4 mps 745 mmHg 58%
    09:00 +25°C° 0 mm 5 mps 744 mmHg 51%
    10:00 +27°C° 0 mm 6 mps 744 mmHg 43%
    11:00 +28°C° 0 mm 6 mps 743 mmHg 41%
    12:00 +29°C° 0 mm 6 mps 743 mmHg 39%
    13:00 +30°C° 0 mm 6 mps 742 mmHg 37%
    14:00 +30°C° 0 mm 6 mps 741 mmHg 38%
    15:00 +30°C° 0 mm 6 mps 741 mmHg 40%
    16:00 +29°C° 0 mm 5 mps 740 mmHg 41%
    17:00 +28°C° 0 mm 5 mps 739 mmHg 44%
    18:00 +27°C° 0 mm 5 mps 739 mmHg 47%
    19:00 +26°C° 0 mm 5 mps 739 mmHg 51%
    20:00 +22°C° 0.4 mm 6 mps 740 mmHg 60%
    21:00 +18°C° 0.4 mm 7 mps 740 mmHg 68%
    22:00 +16°C° 0.4 mm 8 mps 741 mmHg 77%
    23:00 +14°C° 1.6 mm 7 mps 742 mmHg 79%

    22 September, Saturday

    Time Temperature Precipitation Wind Pressure Humidity
    00:00 +12°C° 1.6 mm 7 mps 744 mmHg 81%
    01:00 +10°C° 1.6 mm 6 mps 745 mmHg 82%
    02:00 +10°C° 0.1 mm 6 mps 745 mmHg 80%
    03:00 +10°C° 0.1 mm 5 mps 746 mmHg 77%
    04:00 +10°C° 0.1 mm 5 mps 747 mmHg 74%
    05:00 +10°C° 0 mm 5 mps 747 mmHg 72%
    06:00 +9°C° 0 mm 6 mps 748 mmHg 71%
    07:00 +9°C° 0 mm 6 mps 748 mmHg 70%
    08:00 +10°C° 0 mm 6 mps 748 mmHg 65%
    09:00 +13°C° 0 mm 6 mps 749 mmHg 61%
    10:00 +14°C° 0 mm 6 mps 749 mmHg 56%
    11:00 +14°C° 0 mm 6 mps 749 mmHg 54%
    12:00 +15°C° 0 mm 7 mps 749 mmHg 51%
    13:00 +15°C° 0 mm 7 mps 749 mmHg 48%
    14:00 +15°C° 0.1 mm 6 mps 749 mmHg 48%
    15:00 +15°C° 0.1 mm 6 mps 749 mmHg 49%
    16:00 +15°C° 0.1 mm 6 mps 749 mmHg 49%
    17:00 +14°C° 0 mm 5 mps 749 mmHg 54%
    18:00 +13°C° 0 mm 4 mps 749 mmHg 59%
    19:00 +12°C° 0 mm 3 mps 750 mmHg 64%
    20:00 +11°C° 0 mm 3 mps 750 mmHg 65%
    21:00 +11°C° 0 mm 3 mps 750 mmHg 67%
    22:00 +10°C° 0 mm 3 mps 750 mmHg 69%
    23:00 +10°C° 0 mm 3 mps 750 mmHg 70%

    23 September, Sunday

    Time Temperature Precipitation Wind Pressure Humidity
    00:00 +9°C° 0 mm 3 mps 750 mmHg 72%
    01:00 +9°C° 0 mm 3 mps 750 mmHg 74%
    02:00 +9°C° 0 mm 3 mps 750 mmHg 75%
    03:00 +8°C° 0 mm 2 mps 750 mmHg 77%
    04:00 +8°C° 0 mm 2 mps 750 mmHg 78%
    05:00 +8°C° 0 mm 2 mps 749 mmHg 75%
    06:00 +9°C° 0 mm 3 mps 749 mmHg 72%
    07:00 +9°C° 0 mm 3 mps 749 mmHg 68%
    08:00 +11°C° 0 mm 3 mps 748 mmHg 63%
    09:00 +13°C° 0 mm 4 mps 748 mmHg 57%
    10:00 +14°C° 0 mm 5 mps 747 mmHg 51%
    11:00 +14°C° 0.2 mm 4 mps 746 mmHg 52%
    12:00 +14°C° 0.2 mm 4 mps 745 mmHg 54%
    13:00 +14°C° 0.2 mm 4 mps 744 mmHg 56%
    14:00 +13°C° 1 mm 4 mps 743 mmHg 63%
    15:00 +12°C° 1 mm 4 mps 742 mmHg 71%
    16:00 +11°C° 1 mm 4 mps 741 mmHg 78%
    17:00 +12°C° 1.6 mm 5 mps 740 mmHg 79%
    18:00 +12°C° 1.6 mm 5 mps 739 mmHg 79%
    19:00 +11°C° 1.6 mm 6 mps 737 mmHg 80%
    20:00 +11°C° 1 mm 6 mps 736 mmHg 80%
    21:00 +12°C° 1 mm 7 mps 734 mmHg 79%
    22:00 +12°C° 1 mm 7 mps 733 mmHg 79%
    23:00 +12°C° 2.4 mm 7 mps 733 mmHg 79%

    24 September, Monday

    Time Temperature Precipitation Wind Pressure Humidity
    00:00 +12°C° 2.4 mm 8 mps 733 mmHg 79%
    01:00 +12°C° 2.4 mm 8 mps 733 mmHg 79%
    02:00 +12°C° 0.1 mm 8 mps 732 mmHg 77%
    03:00 +11°C° 0.1 mm 8 mps 731 mmHg 74%
    04:00 +10°C° 0.1 mm 7 mps 731 mmHg 72%
    05:00 +10°C° 0.1 mm 8 mps 730 mmHg 72%
    06:00 +10°C° 0.1 mm 8 mps 730 mmHg 72%
    07:00 +11°C° 0.1 mm 8 mps 729 mmHg 73%
    08:00 +11°C° 0.3 mm 8 mps 729 mmHg 75%
    09:00 +11°C° 0.3 mm 8 mps 730 mmHg 76%
    10:00 +11°C° 0.3 mm 8 mps 730 mmHg 78%
    11:00 +10°C° 0.3 mm 8 mps 731 mmHg 79%
    12:00 +10°C° 0.3 mm 8 mps 731 mmHg 80%
    13:00 +10°C° 0.3 mm 8 mps 732 mmHg 81%
    14:00 +10°C° 0.5 mm 8 mps 733 mmHg 82%
    15:00 +9°C° 0.5 mm 8 mps 733 mmHg 83%
    16:00 +8°C° 0.5 mm 9 mps 734 mmHg 84%
    17:00 +7°C° 0.5 mm 9 mps 734 mmHg 85%
    18:00 +7°C° 0.5 mm 8 mps 735 mmHg 86%
    19:00 +7°C° 0.5 mm 8 mps 735 mmHg 87%
    20:00 +7°C° 0.9 mm 8 mps 736 mmHg 88%
    21:00 +9°C° 0.9 mm 8 mps 737 mmHg 88%
    22:00 +9°C° 0.9 mm 8 mps 737 mmHg 89%
    23:00 +9°C° 1.2 mm 8 mps 738 mmHg 88%
    Show more